RH
13 13 12 12 11 10 9 9 10 11 9 8 6 6 11 14 22 32 32 32 32 33 30 32 28 52 61 60 62 62 67 66 61 62 66 75 64 62 63 63 64 64 63 47 62
11 11 11 11 11 11 10 9 8 7 8 10 9 7 7 5 7 15 31 34 33 32 30 31 42 56 60 59 55 53 58 66 66 64 66 75 64 60 58 57 63 68 69 50 64
7 8 8 9 10 10 10 10 9 8 7 7 7 9 9 7 8 4 20 34 34 32 29 32 51 59 56 51 44 46 46 65 68 65 62 67 60 57 61 60 68 71 74 61 59
7 6 6 5 6 6 8 9 10 9 7 7 7 6 8 9 10 8 5 18 32 33 33 33 35 49 49 43 26 35 52 57 69 64 67 63 62 66 64 63 67 72 75 60 57
15 12 9 7 5 5 4 5 7 8 8 8 7 6 6 9 17 16 12 5 26 34 32 31 31 31 46 34 26 40 57 65 69 62 64 64 67 64 67 64 73 72 76 61 57
19 19 18 15 11 7 5 4 4 4 6 8 7 7 6 6 8 14 15 7 14 30 31 32 31 31 41 26 39 39 52 70 69 67 65 67 67 68 61 65 70 77 66 60 69
18 15 13 13 14 15 10 6 4 3 3 4 7 7 7 6 7 10 13 8 9 25 26 33 32 35 37 24 30 56 56 69 62 65 67 67 63 59 62 71 70 76 61 63 67
22 20 18 17 14 12 11 14 12 6 4 3 3 6 6 5 10 11 12 12 4 17 28 35 34 34 31 23 25 28 48 58 58 60 64 63 51 60 60 71 74 72 63 54 66
23 22 21 17 15 16 14 12 11 15 14 7 4 3 5 6 6 9 10 10 4 8 27 34 34 34 29 22 25 25 38 48 58 60 59 59 53 59 50 56 69 72 67 59 61
24 23 22 19 15 12 11 14 13 12 12 17 17 6 5 7 11 12 10 8 4 9 22 32 34 34 29 24 25 26 37 38 50 53 37 36 46 50 51 53 56 72 70 65 60
27 25 23 18 16 13 10 8 13 14 14 15 17 14 9 9 18 19 13 8 4 10 20 29 34 36 34 28 24 24 32 34 38 27 23 27 45 54 52 58 51 54 63 66 61
30 27 26 22 16 13 11 9 10 14 13 16 15 22 12 11 21 24 23 9 5 9 18 27 30 31 30 25 16 21 27 30 27 18 17 33 46 47 54 49 57 58 56 55 61
29 29 27 26 21 15 13 11 12 15 14 18 17 16 20 19 20 20 21 14 8 8 15 23 17 23 21 19 12 16 28 29 20 14 16 29 41 42 41 45 49 47 54 54 55
12 28 27 26 22 18 16 14 16 18 22 22 19 17 16 22 23 25 24 18 17 11 12 17 16 15 19 16 15 16 31 23 13 13 20 44 52 37 35 37 39 40 42 56 50
5 17 27 26 23 18 17 15 17 19 33 21 20 17 14 23 23 22 24 24 21 19 21 16 15 14 15 13 16 23 15 20 20 15 24 41 56 38 34 16 25 27 30 39 49
5 12 26 25 21 17 17 16 17 20 31 26 22 22 19 21 24 26 28 32 32 32 23 26 20 17 15 17 19 18 23 22 20 19 66 25 53 35 14 14 19 23 28 30 45
6 16 28 25 19 16 18 19 18 29 29 26 27 23 20 21 24 26 25 30 35 34 32 29 26 24 19 18 18 20 22 20 19 33 62 18 41 16 12 14 16 21 26 32 40
11 11 23 26 20 14 17 19 19 31 30 28 25 23 22 20 24 26 26 28 31 32 31 28 26 23 15 16 17 20 21 21 22 25 18 15 20 12 12 15 16 19 21 33 43
15 14 14 20 21 15 18 19 17 32 33 29 25 25 23 20 21 25 25 23 22 26 32 29 27 23 22 17 18 21 20 19 16 18 19 14 13 13 13 15 15 16 21 26 37
18 17 17 18 18 17 20 19 20 32 33 34 28 26 23 24 22 21 20 22 22 21 20 22 27 22 24 22 21 20 20 19 19 21 22 17 14 13 11 12 14 15 17 18 35
23 20 24 24 27 29 23 19 21 23 26 27 35 34 29 28 27 25 24 25 25 24 24 21 23 20 22 24 22 19 20 19 20 19 26 28 17 12 12 13 14 15 20 22 35
26 25 28 28 34 38 38 37 38 37 45 41 39 39 36 33 34 31 27 26 25 26 24 26 28 26 24 21 22 24 22 20 18 18 17 18 16 14 14 12 14 14 17 26 37
23 22 31 33 43 45 46 46 50 48 51 48 43 39 37 35 36 35 32 30 30 28 26 28 28 26 24 23 22 23 22 22 21 20 18 22 17 16 15 14 13 14 17 24 33
19 26 32 42 46 46 53 55 55 58 53 52 50 45 44 44 43 37 36 37 35 33 30 32 33 28 27 26 27 24 22 21 20 20 19 19 18 17 16 15 14 16 19 23 32
22 30 36 50 59 57 55 57 56 57 58 54 49 50 45 42 44 47 44 42 42 40 38 34 34 34 29 26 27 27 26 22 21 22 20 20 20 18 18 16 15 22 22 23 25
32 38 40 49 64 70 72 67 65 61 60 60 57 51 46 44 44 48 51 51 48 48 46 45 45 46 39 31 31 30 26 28 26 24 24 22 21 20 20 19 16 16 21 25 23
42 50 50 50 49 55 69 70 68 67 62 62 59 54 47 48 47 44 48 52 51 49 48 52 49 52 52 44 42 40 30 26 25 24 24 23 21 21 23 21 18 18 20 19 23
Wind_Speed
4 3 3 2 2 2 1 0 0 0 1 2 4 6 8 12 15 17 14 13 12 11 9 6 4 5 3 1 6 8 9 4 5 13 8 3 4 8 6 6 7 13 19 10 2
3 3 3 2 2 2 1 1 1 1 1 2 3 4 5 7 9 13 18 18 16 13 11 8 6 8 4 2 6 9 8 7 5 9 7 4 3 7 5 4 9 12 16 15 3
4 4 3 3 3 2 2 2 1 0 1 2 2 3 4 5 7 12 21 23 20 17 15 12 13 10 4 5 11 14 14 9 10 9 5 8 7 7 9 5 10 9 13 17 4
5 5 4 4 3 3 2 2 2 1 1 1 1 2 4 5 6 9 13 19 23 22 19 16 14 10 3 4 11 13 9 10 8 4 13 11 13 10 11 8 10 7 9 12 2
7 7 7 6 5 4 4 2 2 2 1 0 1 2 4 6 8 9 9 16 25 25 21 19 15 10 6 5 12 7 6 6 6 4 6 8 13 13 9 9 9 5 8 8 8
8 9 9 9 8 7 6 5 3 3 2 1 1 2 4 7 8 9 5 12 21 26 26 21 15 11 7 4 8 6 7 8 5 3 5 8 12 13 6 7 7 3 5 2 8
10 10 9 10 10 11 10 8 8 6 5 3 3 4 5 7 7 7 8 9 20 23 25 19 15 14 11 5 4 2 3 7 7 5 5 9 12 7 9 6 3 4 4 6 9
12 11 11 11 11 12 12 11 11 10 9 7 5 6 7 6 7 7 8 11 18 26 28 23 19 16 13 8 6 5 9 10 8 8 8 8 10 5 7 11 6 6 3 9 8
13 13 13 12 11 13 13 13 13 12 11 10 8 7 8 9 12 10 10 13 17 24 29 25 23 20 17 11 9 9 10 9 12 9 11 13 12 7 9 10 10 8 6 6 6
14 14 14 13 12 14 13 14 14 13 13 10 10 8 10 13 16 12 14 16 19 24 28 27 24 23 21 16 12 8 11 11 9 8 14 16 13 11 6 8 10 10 9 9 5
14 14 14 12 12 13 13 14 12 13 12 10 6 9 12 15 14 13 13 19 23 25 30 30 30 34 25 16 15 15 12 13 11 15 23 21 14 16 15 14 10 8 12 12 8
15 14 15 12 12 12 13 11 10 9 9 8 11 15 13 16 15 18 18 22 26 28 30 31 39 28 27 21 16 18 18 18 17 11 22 18 17 12 18 16 17 14 10 12 12
15 14 15 13 12 11 11 9 8 8 5 1 3 8 20 19 18 16 18 22 24 26 29 31 14 29 26 22 18 20 20 18 19 24 18 18 20 15 15 17 18 20 18 14 14
15 13 14 13 12 10 8 6 5 5 3 4 2 2 20 23 17 14 12 22 22 21 20 24 28 12 11 23 16 18 22 18 18 19 12 6 7 15 13 14 17 20 20 20 12
14 11 14 13 12 9 6 4 2 1 3 2 5 2 12 21 4 17 14 17 12 12 20 12 13 19 17 15 12 18 15 16 18 17 14 13 6 16 17 15 15 19 20 18 16
13 8 12 11 10 7 5 4 2 1 1 2 3 2 6 19 5 11 20 15 13 13 12 11 13 12 13 10 8 12 15 17 16 12 4 18 18 20 20 19 16 17 19 19 17
12 8 9 9 8 6 6 6 3 4 3 3 3 4 5 17 9 13 24 23 23 15 21 18 17 15 17 18 16 15 14 4 2 1 7 12 15 24 24 20 21 17 17 17 17
12 9 8 7 6 4 5 9 5 5 4 2 5 8 10 10 16 15 17 20 23 21 16 9 10 14 23 26 17 12 12 10 5 4 7 9 8 13 18 17 15 14 15 13 15
11 9 9 7 6 5 7 10 2 6 2 0 3 4 12 11 13 22 24 22 20 19 28 4 7 3 6 20 20 14 15 13 14 6 2 9 21 26 19 19 20 13 17 15 13
11 9 9 8 7 7 8 9 6 7 6 4 3 4 11 9 10 10 8 5 8 16 23 25 28 20 6 13 18 19 17 10 10 2 5 5 8 14 16 11 10 16 17 18 15
10 9 9 9 8 6 8 7 9 10 11 7 7 4 4 5 6 8 6 8 5 5 6 20 30 29 19 11 10 14 19 17 15 9 6 2 7 11 11 9 13 16 17 11 13
10 10 11 12 11 10 11 10 11 9 7 7 8 10 9 7 8 7 8 11 9 5 4 7 10 21 25 23 27 28 22 14 12 7 7 7 23 20 22 20 17 18 16 10 10
11 11 11 14 13 14 14 11 8 9 7 8 6 7 12 11 7 9 13 14 14 10 4 6 6 7 15 21 25 26 26 27 26 27 17 9 25 22 22 17 16 18 16 11 7
9 9 13 17 19 18 18 13 12 8 8 9 10 8 10 9 9 9 14 11 11 13 11 11 11 14 13 11 9 9 18 23 21 20 18 20 23 22 20 22 16 17 12 10 9
10 10 15 13 19 22 21 18 15 13 12 12 11 13 12 12 12 14 14 14 15 16 15 18 19 19 19 20 20 14 14 20 21 19 18 14 13 17 10 11 10 8 10 8 7
13 11 14 18 18 19 21 23 23 22 20 18 16 14 14 12 14 13 12 13 15 13 10 12 13 14 19 19 21 22 18 17 18 18 16 12 13 13 10 8 9 11 7 10 12
13 11 12 15 18 20 22 22 23 24 21 22 20 18 13 14 15 17 17 16 15 16 19 15 14 10 9 15 18 23 26 24 24 21 20 19 16 15 9 10 11 13 16 14 12
Wind_Direction
31 33 41 46 41 36 27 16 161 238 199 210 214 214 215 217 213 210 192 199 198 201 194 185 215 161 188 73 28 10 15 18 161 177 180 234 251 215 219 278 344 12 14 12 307
5 5 9 16 17 17 1 333 319 265 230 211 209 208 212 216 211 202 194 200 191 191 189 186 190 185 191 321 3 334 333 348 303 202 211 243 214 217 220 312 346 356 6 11 37
340 337 337 342 338 336 337 331 318 252 221 224 205 196 199 198 194 191 199 199 192 187 191 186 188 195 213 315 338 315 304 293 327 194 229 213 253 251 250 287 324 335 353 4 31
327 322 318 316 310 303 302 306 309 297 243 225 196 188 190 189 181 185 199 203 193 192 193 191 209 208 232 296 334 321 309 277 319 311 221 237 263 281 277 273 301 300 346 2 83
322 316 311 307 301 297 292 287 274 276 261 184 165 179 187 190 181 155 179 194 192 194 193 200 214 226 231 298 319 321 321 279 293 332 236 250 243 291 299 240 278 292 339 6 107
324 318 312 306 301 293 289 285 279 269 269 245 199 187 192 200 204 202 189 192 193 192 191 201 210 219 232 286 323 302 301 279 272 283 246 246 262 266 258 248 267 252 347 102 111
328 320 312 306 303 296 289 280 274 267 263 249 225 210 211 213 187 191 187 183 191 192 194 201 212 217 229 257 289 40 292 271 271 236 240 248 271 312 251 247 230 206 48 151 132
329 323 314 306 299 293 289 284 274 266 258 250 238 226 219 195 184 169 186 197 195 187 193 201 208 213 225 236 254 294 286 274 288 264 271 280 294 288 295 285 261 211 112 160 138
324 325 322 316 302 288 286 283 278 270 264 256 246 237 222 197 186 195 186 183 190 190 193 201 209 218 222 227 241 261 271 282 284 305 294 290 283 302 288 287 272 226 197 168 172
319 317 318 319 310 297 292 280 278 275 272 268 256 235 217 177 191 186 186 186 184 190 195 201 211 220 223 226 236 266 284 285 287 288 307 309 296 270 292 289 289 273 236 224 182
317 316 314 317 307 299 293 286 285 281 281 266 245 213 214 199 193 196 182 187 182 192 199 200 212 216 218 234 249 257 271 278 275 305 312 310 300 274 274 277 271 293 260 242 213
313 315 313 321 312 304 299 301 301 300 298 275 233 217 212 203 189 193 192 189 190 192 202 208 219 223 225 232 252 246 257 262 285 301 314 305 294 275 255 278 278 285 278 257 234
304 309 307 312 311 309 312 317 325 327 346 170 242 222 206 206 202 204 201 196 196 198 204 213 231 235 232 237 248 240 245 260 288 305 303 285 284 282 260 270 273 284 272 249 237
298 298 299 302 300 305 311 327 348 353 32 51 17 259 200 205 211 218 213 203 202 208 210 226 223 224 223 235 229 243 233 269 287 299 293 277 276 290 274 283 275 278 276 257 240
311 291 290 295 295 299 283 305 341 50 26 101 35 97 189 189 200 212 188 188 202 213 209 220 225 227 220 212 221 232 260 294 299 291 268 261 249 273 285 297 286 294 286 272 245
322 294 286 296 295 283 247 248 251 203 288 131 53 8 197 191 198 200 188 192 200 224 235 255 258 234 222 245 256 252 286 299 290 265 235 253 241 271 275 285 292 291 292 277 256
329 303 287 295 295 279 232 210 206 210 174 120 276 257 217 201 211 201 194 200 209 219 235 249 254 248 250 254 247 255 274 291 298 235 220 248 238 261 286 286 296 298 282 274 264
332 311 298 290 289 272 223 199 212 155 145 235 240 241 219 208 203 187 208 219 226 230 255 272 277 234 231 234 234 254 267 224 219 203 242 254 240 283 281 275 285 292 306 251 235
323 312 297 284 271 241 211 202 194 182 236 209 175 205 185 188 196 220 241 255 252 243 238 259 261 272 263 228 229 242 257 268 256 291 249 247 267 278 263 259 278 297 288 289 243
311 304 292 285 252 229 221 218 208 218 237 235 177 167 186 158 197 215 211 238 242 249 245 255 262 282 310 233 226 242 257 255 245 186 259 233 242 262 283 243 271 320 297 288 262
299 280 270 258 242 233 237 227 219 233 252 240 230 236 198 232 206 219 213 210 177 220 213 235 248 268 269 242 247 239 235 250 263 225 183 226 260 288 294 258 305 321 307 272 269
292 265 256 245 237 247 242 232 235 215 228 236 238 243 241 251 268 256 233 227 229 249 275 242 239 255 265 263 269 270 264 271 245 241 222 248 271 282 301 289 295 318 311 264 243
293 269 255 240 239 240 238 233 257 241 215 212 218 220 224 239 243 230 226 230 240 250 232 232 242 283 275 267 267 266 270 268 267 261 254 234 272 294 292 293 284 303 295 280 243
298 261 249 243 243 247 248 253 249 246 258 237 235 235 225 225 231 225 212 232 255 261 249 256 262 252 247 271 279 249 262 259 257 237 246 255 282 290 283 288 277 300 264 265 201
308 266 257 251 246 248 252 252 255 250 253 258 255 256 251 264 259 243 237 245 260 271 267 261 267 265 257 260 273 277 249 240 230 243 244 261 274 288 284 294 274 285 232 238 237
312 282 261 254 255 255 258 263 265 267 273 278 273 270 268 255 246 250 248 255 265 262 258 256 258 256 258 251 264 268 253 241 233 228 233 232 257 276 244 242 254 252 247 218 225
309 295 278 264 261 260 260 261 265 270 270 271 271 268 251 248 252 251 247 254 259 270 279 271 265 266 279 274 263 260 257 254 249 245 237 230 247 254 234 236 241 230 228 219 243